Location: Gu�tanj
(46.5431°N, 14.9692°E)
Time: 17:19:05
(UTC+00:00)

Sich 1 - Pass Details

Date: 03 March 2021
Orbit: 593 x 626 km, 82.5° (Epoch: 15 April)

Event Time Altitude Azimuth Distance (km) Brightness Sun altitude
Rises 17:27:37 0° 199° (SSW) 2,874 6.8 -7.4°
Reaches altitude 10° 17:29:52 10° 204° (SSW) 1,978 6.0 -7.8°
Maximum altitude 17:34:10 54° 282° (WNW) 757 4.0 -8.6°
Drops below altitude 10° 17:38:32 10° 1° (N) 2,008 5.7 -9.3°
Sets 17:40:50 0° 6° (N) 2,922 6.5 -9.7°
